Mexico City Airport, Mexico

11:27 PM CDT on August 17, 2017 (GMT -0500)
Lic Benito Juarez International

Weather History for MMMX - December, 2011

Change the Weather History Date:

Wednesday, December 7, 2011

  Actual Average Record
Temperature  
Mean Temperature 58 °F -  
Max Temperature 73 °F 68 °F 78 °F (1997)
Min Temperature 42 °F 40 °F 35 °F (2000)
Degree Days  
Heating Degree Days 8    
Growing Degree Days 8 (Base 50)    
Moisture  
Dew Point 41 °F    
Average Humidity 57    
Maximum Humidity 82    
Minimum Humidity 23    
Precipitation  
Precipitation 0.00 in - - ()
Sea Level Pressure  
Sea Level Pressure 30.23 in    
Wind  
Wind Speed 5 mph ()    
Max Wind Speed 15 mph    
Max Gust Speed -    
Visibility 5.7 miles    
Events      
Averages and records for this station are not official NWS values.
T = Trace of Precipitation, MM = Missing Value Source: Averaged Metar Reports

Daily Weather History Graph

Daily Weather History Graph

Search for Another Location

Airport or City:

Trip Planner

Search our weather history database for the weather conditions in past years. The results will help you decide how hot, cold, wet, or windy it might be!

Date:

Astronomy

Dec. 07, 2011 Rise Set
Actual Time 6:57 AM CST 5:57 PM CST
Civil Twilight 6:33 AM CST 6:21 PM CST
Nautical Twilight 6:06 AM CST 6:49 PM CST
Astronomical Twilight 5:39 AM CST 7:15 PM CST
Moon 3:52 PM CST (12/7) 4:24 AM CST (12/7)
Length of Visible Light 11h 47m
Length of Day
11h 00m
Waxing Gibbous, 92% of the Moon is Illuminated
Dec 7
Waxing Gibbous
Dec 10
Full
Dec 17
Last Quarter
Dec 24
New
Jan 1
First Quarter

Hourly Weather History & Observations

Time (CST) Temp. Windchill Dew Point Humidity Pressure Visibility Wind Dir Wind Speed Gust Speed Precip Events Conditions
12:48 AM 57.2 °F - 39.2 °F 51% 30.34 in 7.0 mi Calm Calm - N/A   Clear
1:45 AM 55.4 °F - 41.0 °F 58% 30.34 in 7.0 mi ENE 4.6 mph - N/A   Clear
2:34 AM 51.8 °F - 41.0 °F 67% 30.34 in 7.0 mi ENE 6.9 mph - N/A   Clear
2:45 AM 51.8 °F - 41.0 °F 67% 29.81 in 7.0 mi East 6.9 mph - N/A   Clear
3:13 AM 48.2 °F - 42.8 °F 82% 30.33 in 6.0 mi East 3.5 mph - N/A   Partly Cloudy
3:47 AM 48.2 °F - 41.0 °F 76% 30.33 in 5.0 mi East 4.6 mph - N/A   Scattered Clouds
4:46 AM 46.4 °F 42.9 °F 39.2 °F 76% 30.33 in 5.0 mi ENE 6.9 mph - N/A   Scattered Clouds
5:45 AM 46.4 °F 44.3 °F 39.2 °F 76% 29.94 in 5.0 mi East 4.6 mph - N/A   Scattered Clouds
6:20 AM 44.6 °F 43.1 °F 39.2 °F 81% 30.34 in 5.0 mi East 3.5 mph - N/A   Partly Cloudy
6:45 AM 42.8 °F 40.1 °F 37.4 °F 81% 30.35 in 4.0 mi East 4.6 mph - N/A   Partly Cloudy
7:20 AM 44.6 °F 42.2 °F 39.2 °F 81% 30.37 in 3.0 mi North 4.6 mph - N/A   Haze
7:39 AM 48.2 °F - 39.2 °F 71% 30.37 in 4.0 mi East 3.5 mph - N/A   Scattered Clouds
7:42 AM 48.2 °F - 39.2 °F 71% 30.37 in 4.0 mi East 3.5 mph - N/A   Scattered Clouds
8:21 AM 50.0 °F - 41.0 °F 71% 30.38 in 4.0 mi East 3.5 mph - N/A   Clear
8:37 AM 53.6 °F - 42.8 °F 67% 30.39 in 4.0 mi ENE 4.6 mph - N/A   Clear
8:43 AM 53.6 °F - 42.8 °F 67% 29.94 in 4.0 mi ENE 4.6 mph - N/A   Clear
9:24 AM 57.2 °F - 42.8 °F 59% 30.39 in 4.0 mi NE 5.8 mph - N/A   Clear
9:25 AM 57.2 °F - 42.8 °F 59% 30.39 in 4.0 mi East 4.6 mph - N/A   Clear
9:43 AM 59.0 °F - 41.0 °F 51% 30.39 in 4.0 mi NE 4.6 mph - N/A   Clear
10:34 AM 62.6 °F - 42.8 °F 48% 30.38 in 4.0 mi East 3.5 mph - N/A   Clear
10:43 AM 62.6 °F - 42.8 °F 48% 30.38 in 4.0 mi ENE 3.5 mph - N/A   Clear
11:42 AM 66.2 °F - 39.2 °F 37% 30.35 in 4.0 mi NNE 5.8 mph - N/A   Clear
11:47 AM 68.0 °F - 39.2 °F 35% 29.86 in 4.0 mi ENE 9.2 mph - N/A   Clear
12:43 PM 69.8 °F - 39.2 °F 33% 30.31 in 4.0 mi ENE 5.8 mph - N/A   Clear
1:43 PM 71.6 °F - 37.4 °F 29% 30.27 in 4.0 mi NE 4.6 mph - N/A   Clear
2:45 PM 73.4 °F - 33.8 °F 23% 29.72 in 4.0 mi SSE 4.6 mph - N/A   Clear
3:51 PM 71.6 °F - 39.2 °F 31% 30.22 in 4.0 mi ESE 9.2 mph - N/A   Clear
4:50 PM 69.8 °F - 39.2 °F 33% 30.23 in 4.0 mi ESE 13.8 mph - N/A   Clear
5:50 PM 68.0 °F - 41.0 °F 37% 29.76 in 6.0 mi SSE 15.0 mph - N/A   Clear
6:43 PM 64.4 °F - 41.0 °F 42% 30.26 in 8.0 mi South 15.0 mph - N/A   Clear
6:46 PM 64.4 °F - 41.0 °F 42% 30.26 in 8.0 mi South 15.0 mph - N/A   Clear
7:44 PM 62.6 °F - 41.0 °F 45% 30.29 in 10.0 mi South 12.7 mph - N/A   Clear
8:45 PM 60.8 °F - 42.8 °F 52% 29.88 in 10.0 mi SE 11.5 mph - N/A   Clear
9:45 PM 60.8 °F - 42.8 °F 52% 30.32 in 10.0 mi ESE 8.1 mph - N/A   Clear
10:44 PM 59.0 °F - 42.8 °F 55% 30.34 in 10.0 mi SSE 6.9 mph - N/A   Clear
11:40 PM 51.8 °F - 42.8 °F 71% 30.34 in 10.0 mi East 8.1 mph - N/A   Clear
11:45 PM 51.8 °F - 42.8 °F 71% 29.90 in 10.0 mi East 9.2 mph - N/A   Clear